TimePDT,TemperatureF,Dew PointF,Humidity,Sea Level PressureIn,VisibilityMPH,Wind Direction,Wind SpeedMPH,Gust SpeedMPH,PrecipitationIn,Events,Conditions,WindDirDegrees,DateUTC
12:15 AM,35.6,35.6,100,30.40,4.0,Calm,Calm,-,N/A,,Clear,0,2011-10-25 07:15:00
12:35 AM,35.6,35.6,100,30.42,4.0,Calm,Calm,-,N/A,,Clear,0,2011-10-25 07:35:00
12:55 AM,33.8,33.8,100,30.41,1.8,Calm,Calm,-,N/A,,Clear,0,2011-10-25 07:55:00
1:15 AM,33.8,33.8,100,30.42,0.8,Calm,Calm,-,N/A,,Unknown,0,2011-10-25 08:15:00
1:35 AM,35.6,35.6,100,30.42,9.0,Calm,Calm,-,N/A,,Mostly Cloudy,0,2011-10-25 08:35:00
1:55 AM,37.4,37.4,100,30.42,10.0,Calm,Calm,-,N/A,,Overcast,0,2011-10-25 08:55:00
2:15 AM,39.2,39.2,100,30.43,10.0,Calm,Calm,-,N/A,,Overcast,0,2011-10-25 09:15:00
2:35 AM,39.2,39.2,100,30.43,10.0,Calm,Calm,-,N/A,,Scattered Clouds,0,2011-10-25 09:35:00
2:55 AM,35.6,35.6,100,30.43,0.5,Calm,Calm,-,N/A,,Unknown,0,2011-10-25 09:55:00
3:15 AM,37.4,37.4,100,30.44,4.0,Calm,Calm,-,N/A,,Clear,0,2011-10-25 10:15:00
3:35 AM,35.6,35.6,100,30.42,9.0,Calm,Calm,-,N/A,,Clear,0,2011-10-25 10:35:00
3:55 AM,35.6,35.6,100,30.44,6.0,Calm,Calm,-,N/A,,Clear,0,2011-10-25 10:55:00
4:15 AM,33.8,32.0,93,30.43,10.0,Calm,Calm,-,N/A,,Partly Cloudy,0,2011-10-25 11:15:00
4:35 AM,35.6,33.8,93,30.44,2.0,Calm,Calm,-,N/A,,Scattered Clouds,0,2011-10-25 11:35:00
4:55 AM,35.6,35.6,100,30.43,10.0,Calm,Calm,-,N/A,,Mostly Cloudy,0,2011-10-25 11:55:00
5:15 AM,33.8,32.0,93,30.44,10.0,Calm,Calm,-,N/A,,Scattered Clouds,0,2011-10-25 12:15:00
5:35 AM,33.8,33.8,100,30.45,1.0,Calm,Calm,-,N/A,,Clear,0,2011-10-25 12:35:00
5:55 AM,32.0,32.0,100,30.44,0.2,Calm,Calm,-,N/A,,Unknown,0,2011-10-25 12:55:00
6:15 AM,33.8,32.0,93,30.45,3.0,Calm,Calm,-,N/A,,Clear,0,2011-10-25 13:15:00
6:35 AM,32.0,32.0,100,30.45,1.0,Calm,Calm,-,N/A,,Clear,0,2011-10-25 13:35:00
6:55 AM,33.8,30.2,87,30.45,2.0,Calm,Calm,-,N/A,,Clear,0,2011-10-25 13:55:00
7:15 AM,33.8,33.8,100,30.46,2.5,Calm,Calm,-,N/A,,Clear,0,2011-10-25 14:15:00
7:35 AM,32.0,30.2,93,30.46,7.0,Calm,Calm,-,N/A,,Clear,0,2011-10-25 14:35:00
7:55 AM,32.0,32.0,100,30.46,1.8,Calm,Calm,-,N/A,,Clear,0,2011-10-25 14:55:00
8:15 AM,32.0,30.2,93,30.48,3.0,Calm,Calm,-,N/A,,Clear,0,2011-10-25 15:15:00
8:35 AM,33.8,33.8,100,30.48,5.0,Calm,Calm,-,N/A,,Clear,0,2011-10-25 15:35:00
8:55 AM,35.6,35.6,100,30.48,6.0,Calm,Calm,-,N/A,,Scattered Clouds,0,2011-10-25 15:55:00
9:15 AM,39.2,37.4,93,30.50,10.0,Calm,Calm,-,N/A,,Overcast,0,2011-10-25 16:15:00
9:35 AM,39.2,37.4,93,30.50,10.0,Calm,Calm,-,N/A,,Scattered Clouds,0,2011-10-25 16:35:00
9:55 AM,44.6,42.8,93,30.49,10.0,NNE,5.8,-,N/A,,Partly Cloudy,30,2011-10-25 16:55:00
10:15 AM,46.4,44.6,93,30.48,10.0,Calm,Calm,-,N/A,,Partly Cloudy,0,2011-10-25 17:15:00
10:35 AM,46.4,42.8,87,30.49,10.0,Calm,Calm,-,0.01,,Clear,0,2011-10-25 17:35:00
10:55 AM,48.2,42.8,82,30.50,-9999.0,ENE,3.5,-,0.01,,Clear,60,2011-10-25 17:55:00
11:35 AM,48.2,42.8,82,30.50,-9999.0,NNE,12.7,-,N/A,,Unknown,30,2011-10-25 18:35:00
11:55 AM,50.0,42.8,76,30.49,-9999.0,NNE,9.2,-,N/A,,Scattered Clouds,30,2011-10-25 18:55:00
12:15 PM,50.0,42.8,76,30.50,-9999.0,North,10.4,-,N/A,,Partly Cloudy,10,2011-10-25 19:15:00
12:35 PM,51.8,42.8,71,30.50,-9999.0,North,11.5,16.1,N/A,,Partly Cloudy,360,2011-10-25 19:35:00
1:35 PM,51.8,42.8,71,30.47,-9999.0,NNE,9.2,-,N/A,,Clear,30,2011-10-25 20:35:00
1:55 PM,51.8,42.8,71,30.48,10.0,NNE,6.9,-,N/A,,Clear,20,2011-10-25 20:55:00
2:15 PM,51.8,42.8,71,30.47,10.0,NNE,8.1,-,N/A,,Clear,30,2011-10-25 21:15:00
2:35 PM,53.6,42.8,67,30.47,10.0,NNE,8.1,-,N/A,,Clear,20,2011-10-25 21:35:00
2:55 PM,53.6,42.8,67,30.46,10.0,North,10.4,-,N/A,,Partly Cloudy,10,2011-10-25 21:55:00
3:15 PM,53.6,42.8,67,30.46,10.0,NNE,5.8,-,N/A,,Partly Cloudy,30,2011-10-25 22:15:00
3:35 PM,51.8,42.8,71,30.46,10.0,NNE,9.2,-,N/A,,Partly Cloudy,30,2011-10-25 22:35:00
4:15 PM,51.8,39.2,62,30.46,10.0,North,10.4,-,N/A,,Clear,360,2011-10-25 23:15:00
4:35 PM,51.8,39.2,62,30.45,10.0,NNE,9.2,-,N/A,,Clear,20,2011-10-25 23:35:00
4:55 PM,51.8,41.0,67,30.45,10.0,NNE,6.9,-,N/A,,Clear,30,2011-10-25 23:55:00
5:15 PM,50.0,41.0,71,30.45,10.0,NE,9.2,-,N/A,,Clear,40,2011-10-26 00:15:00
5:35 PM,48.2,39.2,71,30.45,10.0,NE,3.5,-,N/A,,Clear,40,2011-10-26 00:35:00
6:15 PM,42.8,37.4,81,30.45,10.0,Calm,Calm,-,N/A,,Clear,0,2011-10-26 01:15:00
6:35 PM,41.0,37.4,87,30.45,10.0,NE,4.6,-,N/A,,Clear,40,2011-10-26 01:35:00
6:55 PM,41.0,37.4,87,30.45,10.0,Calm,Calm,-,N/A,,Clear,0,2011-10-26 01:55:00
7:15 PM,39.2,37.4,93,30.45,10.0,Calm,Calm,-,N/A,,Clear,0,2011-10-26 02:15:00
7:35 PM,37.4,35.6,93,30.44,10.0,Calm,Calm,-,N/A,,Clear,0,2011-10-26 02:35:00
7:55 PM,35.6,33.8,93,30.45,10.0,Calm,Calm,-,N/A,,Clear,0,2011-10-26 02:55:00
8:35 PM,35.6,33.8,93,30.45,10.0,Calm,Calm,-,N/A,,Clear,0,2011-10-26 03:35:00
9:15 PM,33.8,33.8,100,30.45,10.0,Calm,Calm,-,N/A,,Clear,0,2011-10-26 04:15:00
9:35 PM,33.8,32.0,93,30.44,10.0,Calm,Calm,-,N/A,,Clear,0,2011-10-26 04:35:00
9:55 PM,33.8,33.8,100,30.45,3.0,Calm,Calm,-,N/A,,Clear,0,2011-10-26 04:55:00
10:15 PM,33.8,33.8,100,30.45,9.0,Calm,Calm,-,N/A,,Clear,0,2011-10-26 05:15:00
10:35 PM,32.0,30.2,93,30.44,10.0,Calm,Calm,-,N/A,,Clear,0,2011-10-26 05:35:00
10:55 PM,33.8,33.8,100,30.43,10.0,Calm,Calm,-,N/A,,Clear,0,2011-10-26 05:55:00
11:15 PM,35.6,33.8,93,30.44,10.0,Calm,Calm,-,N/A,,Clear,0,2011-10-26 06:15:00
11:55 PM,30.2,28.4,93,30.42,10.0,Calm,Calm,-,N/A,,Clear,0,2011-10-26 06:55:00